Погода в Моршанске

Погода в Моршанске : погода сейчас, прогноз погоды и архив. Всё, что Вы хотите узнать о погоде в Моршанске!

Поиск расширенной информации на нашем сайте:

Другие новости

Новости СМИ2

Главная страница сайта

Новости сайта

03.07.2017

Напоминаем, что на нашем специализированном сайте Метеоцентр.Азия вы можете получить высокодетализированные автоматические прогнозы погоды по пунктам России, СНГ и мира в авиационном формате (включающие направление и скорость ветра, видимость, явления погоды, количество и форму облачности, нижнюю и верхнюю границу облачности).

Рекомендуем: http://pro-biker.com.ua/ смотреть уроки вождения мотоцикла.

Погода в Моршанске - сегодня

Время (UTC), дата Ветер
(°,м/с) 
Видим.   Явления Облачность Т
(°С)
Тd
(°С)
f(%) Тe
(°С)
Pmin
(гПа)
dP
(гПа)
Po
(мм)
O2
(г/м3)
Тmin Tmax R s Состояние
почвы
09 20.01.18 140 (ЮВ) 2000 м  снег  10/10 300 м 
[Frnb|Ns]
-8.3 -10.2 86 -12  1016.1  -0.3  748  312           
12 20.01.18 140 (ЮВ) 4000 м  слаб. снег  10/10 300 м 
[Frnb|Ns]
-7.7 -9.5 87 -10  1015.5  -0.6  748  311           
15 20.01.18 150 (ЮВ) 4000 м  слаб. снег  10/10 300 м 
[Frnb|Ns]
-7.5 -8.8 90 -10  1015.3  -0.2  748  311    -7.5     
18 20.01.18 140 (ЮВ) 4000 м  дымка{снег}  10/10 300 м 
[St]
-5.2 -6.6 90 -8  1015  748  308           
21 20.01.18 140 (ЮВ) 4000 м  дымка  10/10 300 м 
[St]
-4.4 -5.7 91 -6  1015  748  307           
00 21.01.18 130 (ЮВ) 4000 м  слаб. снег  10/10 300 м 
[Frnb|Ns]
-4.8 -6.1 91 -6  1015  748  307           
03 21.01.18 120 (ЮВ) 4000 м  слаб. снег  10/10 300 м 
[Frnb|Ns]
-4.5 -5.4 93 -6  1013.6  -1.3  747  306  -7.5    равномерный
сухой снег
100% 
06 21.01.18 120 (ЮВ) 2000 м  слаб. снег  10/10 300 м 
[Frnb|Ns]
-5.1 -5.8 95 -7  1012.9  -0.7  746  307           
09 21.01.18 110 (В) 2000 м  слаб. снег  10/10 300 м 
[Frnb|Ns]
-3.6 -4.4 94 -5  1010.9  -1.9  745  305           
12 21.01.18 130 (ЮВ) 2000 м  слаб. снег  10/10 300 м 
[Frnb|Ns]
-3 -3.7 95 -4  1008.3  -2.5  743  303           
15 21.01.18 120 (ЮВ) 1000 м  снег  10/10 300 м 
[Frnb|Ns]
-4.1 -4.6 96 -6  1007.2  -1.2  742  304    -3     
18 21.01.18 120 (ЮВ) 2000 м  слаб. снег  10/10 300 м 
[Frnb|Ns]
-4.7 -5.3 96 -6  1005.6  -1.6  741  304           
21 21.01.18 210 (ЮЗ) 2000 м  слаб. снег  10/10 300 м 
[Frnb|Ns]
-4.7 -5.3 96 -6  1007.2  1.6  742  305           
00 22.01.18 250 (З) 4000 м  дымка{снег}  ясно 
-7.1 -8 93 -10  1011.3  3.8  745  309           
03 22.01.18 210 (ЮЗ) 4000 м  дымка  9/0 средняя 
[Ac trans]
-5.7 -6.8 92 -5  1014.4  3.2  747  308  -7.7    21  равномерный
сухой снег
100% 
06 22.01.18 210 (ЮЗ) 4000 м  дымка  10/0 средняя 
[Ac As]
-5.5 -6.6 92 -5  1016.5  749  309           
09 22.01.18 240 (ЮЗ) 10 км    8/0 верхняя 
[Ci]
-3.9 -6.1 85 -5  1018.3  1.9  750  307           
12 22.01.18 240 (ЮЗ) 10 км    9/0 средняя, верхняя 
[Ac trans|Ci]
-3.9 -8.4 71 -3  1019.7  1.4  751  308           
15 22.01.18 270 (З) 10 км    9/0 средняя 
[Ac trans]
-4.8 -8.4 76 -4  1021.1  1.3  752  309    -3.6       
18 22.01.18 340 (С) 10 км    9/0 средняя 
[Ac trans]
-6.6 -9 83 -6  1021.9  0.7  753  312           
21 22.01.18 360 (С) 10 км    9/0 средняя 
[Ac trans]
-7.3 -9.4 85 -7  1022.8  0.8  753  313           
00 23.01.18 340 (С) 4000 м  дымка  5/0 верхняя 
[Ci fib]
-9.4 -10.1 95 -9  1023  753  315           
03 23.01.18 010 (С) 4000 м  дымка  10/0 средняя 
[Ac As]
-9.6 -10.4 94 -11  1022.8  -0.2  753  316  -9.9      21  равномерный
сухой снег
100% 
06 23.01.18 010 (С) 4000 м  дымка  10/0 средняя 
[As op]
-8.9 -10 92 -11  1023.3  0.6  754  315           
09 23.01.18 010 (С) 4000 м  дымка  10/0 средняя 
[As op]
-7.1 -8.4 90 -9  1022.5  -0.6  753  312           
Время (UTC), дата Ветер
(°,м/с) 
Видим.   Явления Облачность Т
(°С)
Тd
(°С)
f(%) Тe
(°С)
Pmin
(гПа)
dP
(гПа)
Po
(мм)
O2
(г/м3)
Тmin Tmax R s Состояние
почвы

Для получения пояснительной информации подведите курсор к названию столбца.

ПОГОДА в Моршанске - архив

Всё, что Вы хотите узнать о погоде в Моршанске - удобно и подробно!

Выберите нужную дату (начиная с 1 января 2015* года) и нажмите кнопку "Найти".
Будут отображены архивные сводки погоды по пункту Моршанск, начиная с указанной даты.


Отображать данные в формате CSV (для использования в таблицах Excel)


Внимание! Наш архив погоды предназначен исключительно для личного некоммерческого использования в познавательных целях. Если Вам необходимы официальные справки о состоянии погоды (для производственных, юридических, коммерческих и т.п. целей), обращайтесь в органы Росгидромета.

*Примечание: данная дата относится к архиву по метеостанциям СССР (Россия, СНГ, Балтия).
Архив по метеостанциям Зарубежной Европы и Азии (кроме Китая) хранится 10 дней, по другим регионам земного шара (Китай, Африка, Америка, Австралия, Океания) - 1 день.

Моршанск - район местоположения метеостанции


Название, широта, долгота, высота метеостанции:
Моршанск 53.4°ш. 41.8°д. 142 м над ур. моря [Российская Федерация]

Дополнительная информация

В oтличие oт бoльшинства пoгoдных сайтoв мы публикуем пoдрoбную метеoинфoрмацию в детальнoм прoфессиoнальнoм фoрмате.

Характеристики температуры и влажнoсти вoздуха измеряются на высoте 2 м в тени вдали oт зданий и деревьев.
Скoрoсть ветра измеряется на высoте 10 м (на урoвне рoста челoвека скoрoсть ветра ниже в 1.5-2 раза). Если метеoстанция нахoдится в гoрoде или в лесу, тo скoрoсть ветра занижена на 2-4 м/с пo сравнению с oткрытым местoм. Скoрoсть ветра над акватoриями крупных рек и oзёр, а также на вершинах хoлмoв на 2-5 м/с выше, чем в oбычных услoвиях.
Атмoсфернoе давление в разных тoчках местнoсти мoжет значительнo oтличаться oт давления на метеoстанции, в зависимoсти oт услoвий рельефа (при пoдъёме на 10 м давление пoнижается примернo на 1 мм рт.ст.).